Regional Weather Roundup
Issued by NWS

Home | Current Version | Previous Version | Text Only | Print | Product List | Glossary On
Versions: 1 2 3 4 5 6 7 8 9 10 11 12 13 14 15 16 17 18 19 20 21 22 23 24 25 26 27 28 29 30 31 32 33 34 35 36 37 38 39 40 41 42 43 44 45 46 47 48 49 50
000
ASUS45 KBOU 220507
RWRCO

WEATHER ROUNDUP FOR COLORADO
NATIONAL WEATHER SERVICE DENVER/BOULDER CO
1100 PM MDT SUN SEP 21 2014

NOTE: "FAIR" INDICATES FEW OR NO CLOUDS BELOW 12000 FEET WITH NO
SIGNIFICANT WEATHER AND/OR OBSTRUCTIONS TO VISIBILITY.

COZ001>005-013-030-031-220600-
...NORTHWEST COLORADO...

CITY           SKY/WX    TMP DP  RH WIND       PRES   REMARKS
CRAIG          CLOUDY    57  52  83 SE7       30.30F
HAYDEN         CLOUDY    54  50  87 E9        30.35S
MEEKER         CLOUDY    56  52  86 N6        30.29F
MOUNT WERNER   NOT AVBL
STEAMBOAT SPGS CLOUDY    53  50  90 E3        30.38R
WALDEN         CLOUDY    43  37  81 E7        30.41S
$$

COZ006>008-011-220600-
...WEST CENTRAL VALLEYS...

CITY           SKY/WX    TMP DP  RH WIND       PRES   REMARKS
GRAND JUNCTION LGT RAIN  59  57  93 E10       30.21R
MONTROSE       MOCLDY    62  56  80 SW6       30.30R
EAGLE          CLOUDY    55  55 100 CALM      30.37F
RIFLE          MOCLDY    61  57  87 S8        30.26F
DELTA          RAIN      63  58  84 NE3       30.25S
NUCLA          MOCLDY    61  54  77 SE6       30.35R
$$

COZ017>023-064>068-220600-
...SOUTHWEST COLORADO...

CITY           SKY/WX    TMP DP  RH WIND       PRES   REMARKS
DURANGO        CLOUDY    63  52  67 W6        30.34R
CORTEZ         LGT RAIN  61  59  93 NE13      30.29F
PAGOSA SPRINGS CLOUDY    61  47  60 CALM      30.42R
TELLURIDE      NOT AVBL
WOLF CREEK PAS CLOUDY    41  41 100 SW14      30.67S
$$

COZ009-010-012-014-032>034-037-058>063-220600-
...CENTRAL COLORADO...

CITY           SKY/WX    TMP DP  RH WIND       PRES   REMARKS
ASPEN          MOCLDY    53  51  93 CALM      30.40S
BUENA VISTA    CLOUDY    54  52  94 E3        30.45F
COPPER MTN     RAIN      45  39  81 SE22G29   30.65S
BERTHOUD PASS  FAIR      36  34  93 SE22      30.70S FOG
COTTONWOOD PAS CLOUDY    52  50  93 SE12G18   30.55F
GUNNISON       CLOUDY    61  45  55 E12       30.39S
KREMMLING      CLOUDY    50  45  81 CALM      30.42R
LEADVILLE      CLOUDY    47  47 100 S3        30.53S
MONARCH PASS   FOG       43  41  93 E8        30.77F VSB<1/4
SALIDA         CLOUDY    58  54  85 S3        30.50S
SUNLIGHT       RAIN      46  45  93 CALM      30.57S
WILKERSON PASS NOT AVBL
$$

COZ069>075-220600-
...SAN LUIS VALLEY/SANGRE DE CRISTO MOUNTAINS...

CITY           SKY/WX    TMP DP  RH WIND       PRES   REMARKS
ALAMOSA        PTCLDY    56  48  74 SE8       30.40R
LA VETA PASS   FOG       45  45 100 E7        30.58S VSB 3/4
SAGUACHE       NOT AVBL
$$

COZ035-036-038>040-220600-
...NORTHERN COLORADO FRONT RANGE...

CITY           SKY/WX    TMP DP  RH WIND       PRES   REMARKS
DENVER INTL AP LGT RAIN  60  56  86 S15       30.31F
DMNS CITY PARK   N/A     59  57  94 SW3G12    30.31F
AURORA         LGT RAIN  58  58 100 S17       30.34F
FRONT RANGE AP NOT AVBL
ERIE MUNI ARPT NOT AVBL
BOULDER MUN AP CLOUDY    61  54  77 S3        30.30S
CENTENNIAL     LGT RAIN  58  57  97 SE10      30.35F
BROOMFIELD     NOT AVBL
FORT COLLINS   MOCLDY    59  45  58 CALM      30.29S
LONGMONT       MOCLDY    63  55  75 CALM      30.30F
$$

COZ041-046-047-076>085-087-088-220600-
...PIKES PEAK/PALMER DIVIDE AND SOUTHERN FOOTHILLS...

CITY           SKY/WX    TMP DP  RH WIND       PRES   REMARKS
COLO. SPRINGS  CLOUDY    63  40  42 SE12      30.41S
A. F. ACADEMY  CLOUDY    61  40  46 S15       30.42R
ELLICOTT       NOT AVBL
FALCON         CLOUDY    58  39  48 SE15G21   30.44F
FORT CARSON    CLOUDY    63  42  46 SE7       30.38S
LIMON          PTCLDY    56  38  50 SE13      30.37S
MONUMENT HILL  MOCLDY    54  39  58 S8        30.43R
TRINIDAD       MOCLDY    62  55  77 SE9       30.36F
$$

COZ042>045-048>051-090-091-220600-
...NORTHEAST COLORADO...

CITY           SKY/WX    TMP DP  RH WIND       PRES   REMARKS
GREELEY ARPT   MOCLDY    63  46  55 SE9       30.27S
AKRON          CLOUDY    58  42  55 SE12      30.32S
BURLINGTON     CLOUDY    59  39  47 SE9       30.34S
WRAY           CLOUDY    66  39  36 SE12      30.31F
STERLING       PTCLDY    64  45  48 S10       30.28S
HOLYOKE        CLOUDY    59  45  58 SE7       30.31F
FORT MORGAN    MOCLDY    60  39  45 S9        30.31S
$$

COZ086-089-092>099-220600-
...SOUTHEAST COLORADO...

CITY           SKY/WX    TMP DP  RH WIND       PRES   REMARKS
PUEBLO         CLOUDY    67  46  47 SE10      30.30S
LA JUNTA       PTCLDY    63  42  46 SE12      30.31S
LAMAR          CLEAR     61  41  47 SE13      30.30S
SPRINGFIELD      N/A     57  44  62 S9        30.35S
$$



USA.gov is the U.S. government's official web portal to all federal, state and local government web resources and services.